Time,TemperatureF,DewpointF,PressureIn,WindDirection,WindDirectionDegrees,WindSpeedMPH,WindSpeedGustMPH,Humidity,HourlyPrecipIn,Conditions,Clouds,dailyrainin,SoftwareType,DateUTC
2013-06-21 00:01:00,82.4,75.2,30.04,South,180,5.8,-999.0,79,-99.99,,,0.00,Acu-Link.com,2013-06-21 05:01:00,
2013-06-21 00:16:00,82.0,74.9,30.05,ESE,112,4.3,-999.0,79,-99.99,,,0.00,Acu-Link.com,2013-06-21 05:16:00,
2013-06-21 00:31:00,82.0,75.2,30.04,West,270,4.3,-999.0,80,-99.99,,,0.00,Acu-Link.com,2013-06-21 05:31:00,
2013-06-21 00:47:00,81.7,74.9,30.05,South,180,7.8,-999.0,80,-99.99,,,0.00,Acu-Link.com,2013-06-21 05:47:00,
2013-06-21 01:02:00,81.5,75.1,30.05,South,180,5.1,-999.0,81,-99.99,,,0.00,Acu-Link.com,2013-06-21 06:02:00,
2013-06-21 01:17:00,81.3,75.3,30.04,South,180,3.8,-999.0,82,-99.99,,,0.00,Acu-Link.com,2013-06-21 06:17:00,
2013-06-21 01:32:00,80.8,75.1,30.04,SW,225,4.3,-999.0,83,-99.99,,,0.00,Acu-Link.com,2013-06-21 06:32:00,
2013-06-21 01:47:00,80.2,75.3,30.04,South,180,4.7,-999.0,85,-99.99,,,0.00,Acu-Link.com,2013-06-21 06:47:00,
2013-06-21 02:03:00,79.7,75.1,30.04,SSW,202,4.7,-999.0,86,-99.99,,,0.00,Acu-Link.com,2013-06-21 07:03:00,
2013-06-21 02:18:00,79.5,75.3,30.05,SW,225,3.1,-999.0,87,-99.99,,,0.00,Acu-Link.com,2013-06-21 07:18:00,
2013-06-21 02:33:00,79.3,75.5,30.05,SW,225,8.3,-999.0,88,-99.99,,,0.00,Acu-Link.com,2013-06-21 07:33:00,
2013-06-21 02:48:00,79.3,75.5,30.04,WSW,247,5.8,-999.0,88,-99.99,,,0.00,Acu-Link.com,2013-06-21 07:48:00,
2013-06-21 03:04:00,79.5,75.6,30.04,ESE,112,5.8,-999.0,88,-99.99,,,0.00,Acu-Link.com,2013-06-21 08:04:00,
2013-06-21 03:19:00,79.2,75.3,30.04,SE,135,7.8,-999.0,88,-99.99,,,0.00,Acu-Link.com,2013-06-21 08:19:00,
2013-06-21 03:34:00,79.0,75.5,30.05,South,180,6.7,-999.0,89,-99.99,,,0.00,Acu-Link.com,2013-06-21 08:34:00,
2013-06-21 03:49:00,78.3,75.4,30.05,SSW,202,4.3,-999.0,91,-99.99,,,0.00,Acu-Link.com,2013-06-21 08:49:00,
2013-06-21 04:05:00,77.7,75.5,30.05,WSW,247,2.7,-999.0,93,-99.99,,,0.00,Acu-Link.com,2013-06-21 09:05:00,
2013-06-21 04:20:00,77.0,75.1,30.05,SSE,157,4.7,-999.0,94,-99.99,,,0.00,Acu-Link.com,2013-06-21 09:20:00,
2013-06-21 04:35:00,77.0,75.5,30.05,South,180,4.7,-999.0,95,-99.99,,,0.00,Acu-Link.com,2013-06-21 09:35:00,
2013-06-21 04:50:00,77.0,75.5,30.05,WNW,292,1.6,-999.0,95,-99.99,,,0.00,Acu-Link.com,2013-06-21 09:50:00,
2013-06-21 05:05:00,76.5,74.9,30.06,SE,135,3.1,-999.0,95,-99.99,,,0.00,Acu-Link.com,2013-06-21 10:05:00,
2013-06-21 05:21:00,76.1,75.2,30.06,ESE,112,3.1,-999.0,97,-99.99,,,0.00,Acu-Link.com,2013-06-21 10:21:00,
2013-06-21 05:36:00,75.2,74.6,30.06,SE,135,4.7,-999.0,98,-99.99,,,0.00,Acu-Link.com,2013-06-21 10:36:00,
2013-06-21 05:51:00,75.2,74.6,30.06,ENE,67,3.8,-999.0,98,-99.99,,,0.00,Acu-Link.com,2013-06-21 10:51:00,
2013-06-21 06:06:00,75.2,74.6,30.07,South,180,2.7,-999.0,98,-99.99,,,0.00,Acu-Link.com,2013-06-21 11:06:00,
2013-06-21 06:21:00,75.0,74.4,30.07,West,270,3.1,-999.0,98,-99.99,,,0.00,Acu-Link.com,2013-06-21 11:21:00,
2013-06-21 06:37:00,75.0,74.4,30.08,SSE,157,2.7,-999.0,98,-99.99,,,0.00,Acu-Link.com,2013-06-21 11:37:00,
2013-06-21 06:52:00,75.0,74.4,30.08,SSE,157,3.1,-999.0,98,-99.99,,,0.00,Acu-Link.com,2013-06-21 11:52:00,
2013-06-21 07:07:00,75.7,75.1,30.08,West,270,0.0,-999.0,98,-99.99,,,0.00,Acu-Link.com,2013-06-21 12:07:00,
2013-06-21 07:22:00,77.0,76.1,30.08,SSW,202,2.7,-999.0,97,-99.99,,,0.00,Acu-Link.com,2013-06-21 12:22:00,
2013-06-21 07:37:00,79.0,76.8,30.09,SE,135,3.1,-999.0,93,-99.99,,,0.00,Acu-Link.com,2013-06-21 12:37:00,
2013-06-21 07:53:00,79.7,77.2,30.09,NE,45,3.1,-999.0,92,-99.99,,,0.00,Acu-Link.com,2013-06-21 12:53:00,
2013-06-21 08:08:00,80.8,77.6,30.10,North,0,5.8,-999.0,90,-99.99,,,0.00,Acu-Link.com,2013-06-21 13:08:00,
2013-06-21 08:23:00,81.5,77.6,30.10,WSW,247,3.1,-999.0,88,-99.99,,,0.00,Acu-Link.com,2013-06-21 13:23:00,
2013-06-21 08:38:00,82.2,78.0,30.10,SW,225,6.7,-999.0,87,-99.99,,,0.00,Acu-Link.com,2013-06-21 13:38:00,
2013-06-21 08:54:00,82.6,77.6,30.11,West,270,8.9,-999.0,85,-99.99,,,0.00,Acu-Link.com,2013-06-21 13:54:00,
2013-06-21 09:09:00,82.2,77.2,30.11,SW,225,6.3,-999.0,85,-99.99,,,0.00,Acu-Link.com,2013-06-21 14:09:00,
2013-06-21 09:24:00,82.4,77.4,30.12,West,270,6.7,-999.0,85,-99.99,,,0.00,Acu-Link.com,2013-06-21 14:24:00,
2013-06-21 09:39:00,84.0,77.2,30.12,SW,225,8.3,-999.0,80,-99.99,,,0.00,Acu-Link.com,2013-06-21 14:39:00,
2013-06-21 09:54:00,84.7,77.5,30.11,North,0,6.3,-999.0,79,-99.99,,,0.00,Acu-Link.com,2013-06-21 14:54:00,
2013-06-21 10:10:00,84.9,76.5,30.11,NNW,337,5.1,-999.0,76,-99.99,,,0.00,Acu-Link.com,2013-06-21 15:10:00,
2013-06-21 10:25:00,86.7,77.0,30.11,South,180,5.1,-999.0,73,-99.99,,,0.00,Acu-Link.com,2013-06-21 15:25:00,
2013-06-21 10:40:00,86.7,77.4,30.11,SSW,202,5.8,-999.0,74,-99.99,,,0.00,Acu-Link.com,2013-06-21 15:40:00,
2013-06-21 10:55:00,87.6,77.0,30.12,WSW,247,5.8,-999.0,71,-99.99,,,0.00,Acu-Link.com,2013-06-21 15:55:00,
2013-06-21 11:26:00,88.5,77.0,30.12,SW,225,8.3,-999.0,69,-99.99,,,0.00,Acu-Link.com,2013-06-21 16:26:00,
2013-06-21 11:41:00,89.4,77.4,30.12,South,180,5.8,-999.0,68,-99.99,,,0.00,Acu-Link.com,2013-06-21 16:41:00,
2013-06-21 11:56:00,89.8,76.9,30.12,WSW,247,7.8,-999.0,66,-99.99,,,0.00,Acu-Link.com,2013-06-21 16:56:00,
2013-06-21 12:11:00,90.1,77.7,30.12,SW,225,4.7,-999.0,67,-99.99,,,0.00,Acu-Link.com,2013-06-21 17:11:00,
2013-06-21 12:26:00,91.4,77.5,30.11,SSW,202,5.8,-999.0,64,-99.99,,,0.00,Acu-Link.com,2013-06-21 17:26:00,
2013-06-21 12:42:00,92.7,78.2,30.11,SW,225,4.7,-999.0,63,-99.99,,,0.00,Acu-Link.com,2013-06-21 17:42:00,
2013-06-21 12:57:00,93.2,76.2,30.11,West,270,5.8,-999.0,58,-99.99,,,0.00,Acu-Link.com,2013-06-21 17:57:00,
2013-06-21 13:27:00,94.5,76.3,30.09,South,180,8.3,-999.0,56,-99.99,,,0.00,Acu-Link.com,2013-06-21 18:27:00,
2013-06-21 13:43:00,94.6,76.5,30.09,South,180,7.8,-999.0,56,-99.99,,,0.00,Acu-Link.com,2013-06-21 18:43:00,
2013-06-21 13:58:00,95.2,76.4,30.08,South,180,4.7,-999.0,55,-99.99,,,0.00,Acu-Link.com,2013-06-21 18:58:00,
2013-06-21 14:13:00,95.7,76.9,30.08,WNW,292,3.8,-999.0,55,-99.99,,,0.00,Acu-Link.com,2013-06-21 19:13:00,
2013-06-21 14:28:00,96.3,76.3,30.07,SSE,157,5.8,-999.0,53,-99.99,,,0.00,Acu-Link.com,2013-06-21 19:28:00,
2013-06-21 14:43:00,95.9,75.4,30.07,ESE,112,4.7,-999.0,52,-99.99,,,0.00,Acu-Link.com,2013-06-21 19:43:00,
2013-06-21 14:59:00,97.0,75.8,30.07,ESE,112,7.8,-999.0,51,-99.99,,,0.00,Acu-Link.com,2013-06-21 19:59:00,
2013-06-21 15:14:00,97.0,74.0,30.06,NNE,22,7.4,-999.0,48,-99.99,,,0.00,Acu-Link.com,2013-06-21 20:14:00,
2013-06-21 15:29:00,97.7,74.6,30.05,SE,135,6.7,-999.0,48,-99.99,,,0.00,Acu-Link.com,2013-06-21 20:29:00,
2013-06-21 15:44:00,97.2,73.5,30.05,NE,45,8.9,-999.0,47,-99.99,,,0.00,Acu-Link.com,2013-06-21 20:44:00,
2013-06-21 15:59:00,97.9,74.2,30.05,SW,225,10.3,-999.0,47,-99.99,,,0.00,Acu-Link.com,2013-06-21 20:59:00,
2013-06-21 16:15:00,97.9,74.2,30.04,SW,225,3.1,-999.0,47,-99.99,,,0.00,Acu-Link.com,2013-06-21 21:15:00,
2013-06-21 16:30:00,98.1,73.7,30.03,WSW,247,6.3,-999.0,46,-99.99,,,0.00,Acu-Link.com,2013-06-21 21:30:00,
2013-06-21 16:45:00,97.7,73.4,30.03,SSE,157,8.9,-999.0,46,-99.99,,,0.00,Acu-Link.com,2013-06-21 21:45:00,
2013-06-21 17:00:00,98.1,73.7,30.02,WNW,292,6.3,-999.0,46,-99.99,,,0.00,Acu-Link.com,2013-06-21 22:00:00,
2013-06-21 17:15:00,96.8,73.8,30.02,South,180,5.8,-999.0,48,-99.99,,,0.00,Acu-Link.com,2013-06-21 22:15:00,
2013-06-21 17:31:00,96.8,73.8,30.02,South,180,6.3,-999.0,48,-99.99,,,0.00,Acu-Link.com,2013-06-21 22:31:00,
2013-06-21 17:46:00,97.0,74.6,30.02,SSE,157,8.9,-999.0,49,-99.99,,,0.00,Acu-Link.com,2013-06-21 22:46:00,
2013-06-21 18:01:00,96.8,73.8,30.01,SSE,157,5.1,-999.0,48,-99.99,,,0.00,Acu-Link.com,2013-06-21 23:01:00,
2013-06-21 18:16:00,97.0,72.1,30.01,East,90,7.8,-999.0,45,-99.99,,,0.00,Acu-Link.com,2013-06-21 23:16:00,
2013-06-21 18:32:00,96.1,73.8,30.00,East,90,5.1,-999.0,49,-99.99,,,0.00,Acu-Link.com,2013-06-21 23:32:00,
2013-06-21 18:47:00,95.2,74.1,30.00,ESE,112,6.7,-999.0,51,-99.99,,,0.00,Acu-Link.com,2013-06-21 23:47:00,
2013-06-21 19:02:00,94.8,74.4,30.00,SW,225,4.7,-999.0,52,-99.99,,,0.00,Acu-Link.com,2013-06-22 00:02:00,
2013-06-21 19:17:00,93.7,74.0,30.00,East,90,4.7,-999.0,53,-99.99,,,0.00,Acu-Link.com,2013-06-22 00:17:00,
2013-06-21 19:32:00,92.5,74.5,30.01,SSW,202,3.8,-999.0,56,-99.99,,,0.00,Acu-Link.com,2013-06-22 00:32:00,
2013-06-21 19:48:00,91.2,73.3,30.00,West,270,5.8,-999.0,56,-99.99,,,0.00,Acu-Link.com,2013-06-22 00:48:00,
2013-06-21 20:03:00,90.5,73.1,30.00,SSW,202,4.7,-999.0,57,-99.99,,,0.00,Acu-Link.com,2013-06-22 01:03:00,
2013-06-21 20:18:00,89.4,73.2,30.00,West,270,3.1,-999.0,59,-99.99,,,0.00,Acu-Link.com,2013-06-22 01:18:00,
2013-06-21 20:33:00,88.3,73.1,30.00,SSE,157,4.3,-999.0,61,-99.99,,,0.00,Acu-Link.com,2013-06-22 01:33:00,
2013-06-21 20:48:00,87.4,73.7,30.00,SW,225,4.3,-999.0,64,-99.99,,,0.00,Acu-Link.com,2013-06-22 01:48:00,
2013-06-21 21:04:00,86.5,74.2,30.00,SSE,157,2.7,-999.0,67,-99.99,,,0.00,Acu-Link.com,2013-06-22 02:04:00,
2013-06-21 21:19:00,86.0,74.6,30.00,South,180,4.3,-999.0,69,-99.99,,,0.00,Acu-Link.com,2013-06-22 02:19:00,
2013-06-21 21:34:00,85.6,74.7,30.00,East,90,2.7,-999.0,70,-99.99,,,0.00,Acu-Link.com,2013-06-22 02:34:00,
2013-06-21 21:49:00,85.5,74.5,30.01,SSW,202,3.1,-999.0,70,-99.99,,,0.00,Acu-Link.com,2013-06-22 02:49:00,
2013-06-21 22:04:00,84.9,74.0,30.02,SSE,157,5.1,-999.0,70,-99.99,,,0.00,Acu-Link.com,2013-06-22 03:04:00,
2013-06-21 22:20:00,84.7,73.8,30.01,WSW,247,4.3,-999.0,70,-99.99,,,0.00,Acu-Link.com,2013-06-22 03:20:00,
2013-06-21 22:35:00,84.2,73.3,30.01,SSW,202,3.8,-999.0,70,-99.99,,,0.00,Acu-Link.com,2013-06-22 03:35:00,
2013-06-21 22:50:00,84.0,73.2,30.01,ESE,112,3.8,-999.0,70,-99.99,,,0.00,Acu-Link.com,2013-06-22 03:50:00,
2013-06-21 23:05:00,83.7,73.2,30.02,ENE,67,3.8,-999.0,71,-99.99,,,0.00,Acu-Link.com,2013-06-22 04:05:00,
2013-06-21 23:21:00,82.9,73.8,30.02,SSE,157,4.3,-999.0,74,-99.99,,,0.00,Acu-Link.com,2013-06-22 04:21:00,
2013-06-21 23:36:00,82.2,73.5,30.03,East,90,2.7,-999.0,75,-99.99,,,0.00,Acu-Link.com,2013-06-22 04:36:00,
2013-06-21 23:51:00,81.5,73.6,30.04,SSW,202,0.0,-999.0,77,-99.99,,,0.00,Acu-Link.com,2013-06-22 04:51:00,